This demonstration page uses our WeatherBlox Daily Observations layout. Learn more.

Left ArrowRight Arrow

Hourly Observations for April 10, 2019

Temp ( °F °C ) Dew Point ( °F °C ) Humidity (%) Winds ( mph kmh ) Pressure ( in mb ) Visibility ( mi km ) Precip ( " mm )
12:52 am 00:52 Cloudy 54 12.2 35 1.7 49 49 E 13 20 29.80 1009 10 16 0.00 0.00
1:52 am 01:52 Cloudy 54 12.2 35 1.7 49 49 ENE 14 22 29.81 1009 10 16 0.00 0.00
2:52 am 02:52 Cloudy 52 11.1 37 2.8 57 57 E 15 24 29.76 1008 10 16 0.00 0.00
3:52 am 03:52 Cloudy 52 11.1 37 2.8 57 57 ESE 14 22 29.74 1007 10 16 0.00 0.00
4:52 am 04:52 Cloudy 51 10.6 38 3.3 61 61 ESE 16 26 29.72 1007 10 16 0.00 0.00
5:52 am 05:52 Mostly Cloudy 50 10 38 3.3 63 63 E 13 20 29.70 1006 10 16 0.00 0.00
6:52 am 06:52 Mostly Cloudy 50 10 38 3.3 63 63 E 22 35 29.65 1004 10 16 0.00 0.00
7:52 am 07:52 Cloudy 51 10.6 38 3.3 61 61 ESE 20 31 29.63 1004 10 16 0.00 0.00
8:52 am 08:52 Cloudy 53 11.7 38 3.3 57 57 ESE 20 31 29.59 1002 10 16 0.00 0.00
9:52 am 09:52 Cloudy 56 13.3 39 3.9 53 53 ESE 14 22 29.58 1002 10 16 0.00 0.00
10:52 am 10:52 Cloudy 60 15.6 40 4.4 47 47 E 20 31 29.55 1001 10 16 0.00 0.00
11:52 am 11:52 Cloudy 61 16.1 41 5 48 48 E 22 35 29.52 1000 10 16 0.00 0.00
12:52 pm 12:52 Cloudy 62 16.7 42 5.6 48 48 E 25 41 29.49 999 10 16 0.00 0.00
1:52 pm 13:52 Cloudy 56 13.3 42 5.6 60 60 ENE 23 37 29.47 998 10 16 0.00 0.00
2:52 pm 14:52 Mostly Cloudy 55 12.8 41 5 59 59 ENE 21 33 29.49 999 10 16 0.00 0.00
3:42 pm 15:42 Cloudy 52 11.1 40 4.4 64 64 NE 17 28 29.51 999 10 16 0.00 0.00
3:52 pm 15:52 Cloudy 53 11.7 40 4.4 61 61 NE 26 43 29.49 999 10 16 0.00 0.00
4:52 pm 16:52 Cloudy 50 10 39 3.9 66 66 NE 17 28 29.48 998 10 16 0.00 0.00
5:52 pm 17:52 Cloudy 47 8.3 37 2.8 69 69 NE 26 43 29.48 998 10 16 0.00 0.00
6:52 pm 18:52 Cloudy 47 8.3 37 2.8 69 69 ENE 24 39 29.50 999 10 16 0.00 0.00
7:52 pm 19:52 Cloudy 45 7.2 37 2.8 74 74 ENE 17 28 29.50 999 10 16 0.00 0.00
8:52 pm 20:52 Cloudy 45 7.2 37 2.8 74 74 NE 20 31 29.49 999 10 16 0.00 0.00
9:48 pm 21:48 Cloudy with Thunderstorms 45 7 37 3 76 76 NNE 14 22 29.51 999 10 16 0.00 0.00
9:52 pm 21:52 Cloudy with Thunderstorms 45 7.2 37 2.8 74 74 ENE 14 22 29.49 999 10 16 0.00 0.03
10:52 pm 22:52 Cloudy with Thunderstorms 44 6.7 38 3.3 79 79 ENE 13 20 29.48 998 3 5 0.16 4.06
11:12 pm 23:12 Cloudy with Thunderstorms 43 6.1 38 3.3 82 82 NE 14 22 29.51 999 6 10 0.03 0.76
11:24 pm 23:24 Cloudy with Nearby Thunderstorms 43 6.1 38 3.3 82 82 NE 15 24 29.50 999 6 10 0.03 0.76
11:31 pm 23:31 Cloudy with Thunderstorms 43 6.1 37 2.8 80 80 NNE 15 24 29.51 999 6 10 0.03 0.76
11:52 pm 23:52 Cloudy with Thunderstorms 43 6.1 37 2.8 80 80 N 18 30 29.49 999 6 10 0.06 1.52

Powered by AerisWeather